Regional Weather Roundup
Issued by NWS

Home | Current Version | Previous Version | Text Only | Print | Product List | Glossary Off
Versions: 1 2 3 4 5 6 7 8 9 10 11 12 13 14 15 16 17 18 19 20 21 22 23 24 25 26 27 28 29

000
ASUS45 KGTF 022010
RWRMT
MONTANA HOURLY WEATHER ROUNDUP
NATIONAL WEATHER SERVICE GREAT FALLS MT
200 PM MDT SAT MAY 02 2015

NOTE: "FAIR" INDICATES FEW OR NO CLOUDS BELOW 12000 FEET WITH NO
SIGNIFICANT WEATHER AND/OR OBSTRUCTIONS TO VISIBILITY.

MTZ001>007-043-022100-
WEST OF THE DIVIDE

CITY           SKY/WX    TMP DP  RH WIND       PRES   REMARKS
KALISPELL      CLEAR     67   8  10 SW15G24   29.81S
MISSOULA       MOSUNNY   67  15  13 SW15G23   29.86F
BUTTE          PTSUNNY   62  22  21 W16G25    29.86F
DEER LODGE       N/A     66  21  18 W15G23    29.87F
EUREKA           N/A     61  27  27 NE3       29.86S
LIBBY            N/A     64   7  10 W6        29.86S
$$

MTZ008-052>055-022100-
SOUTHWEST MONTANA

CITY           SKY/WX    TMP DP  RH WIND       PRES   REMARKS
BOZEMAN        CLOUDY    67  32  27 VRB6      29.81F
DILLON         CLOUDY    72  16  12 W20       29.83F
$$

MTZ009-010-012-014-046-048-049-054-022100-
EAST SLOPES AND CENTRAL MONTANA

CITY           SKY/WX    TMP DP  RH WIND       PRES   REMARKS
CUT BANK       MOSUNNY   54  34  46 N15G21    29.83F
GREAT FALLS    SUNNY     65  32  29 NW9G22    29.78S
MALMSTROM AFB  SUNNY     64  32  29 NW13G20   29.79S
HELENA         MOSUNNY   73  25  16 W20G28    29.79F
$$

MTZ011-013-016-021-045-047-050-051-022100-
NORTH CENTRAL MONTANA

CITY           SKY/WX    TMP DP  RH WIND       PRES   REMARKS
HAVRE          SUNNY     63  38  39 N21G26    29.79R
LEWISTOWN      CLOUDY    67  26  21 NW18G30   29.76F
CHINOOK          N/A     63  37  39 N7        29.78R
FORT BENTON      N/A     63  36  36 NW13G21   29.79R
$$

MTZ017>020-022>042-056>058-061-062-022100-
EASTERN PLAINS

CITY           SKY/WX    TMP DP  RH WIND       PRES   REMARKS
BAKER          MOSUNNY   77  28  16 W18       29.72F
BILLINGS       CLOUDY    75  24  15 W15G31    29.74F
GLASGOW        SUNNY     71  35  26 W13       29.70S
JORDAN           N/A     76  26  15 W16G25    29.69F
LIVINGSTON     MOSUNNY   70  23  17 W21G29    29.79F
MILES CITY     SUNNY     80  27  14 W21       29.69F
SIDNEY         SUNNY     77  32  19 W13G21    29.66F
WOLF POINT     MOSUNNY   75  36  24 VRB6      29.67F
BIG TIMBER       N/A     70  23  17 W24G33    29.78F
FORSYTH          N/A     79  27  14 W8G20     29.69F
PLENTYWOOD       N/A     68  34  28 N6        29.69S
POPLAR           N/A     73  30  20 W7        29.68S
$$

REGIONAL REPORTS...DAKOTAS

CITY           SKY/WX    TMP DP  RH WIND       PRES   REMARKS
WILLISTON      SUNNY     76  35  22 VRB7      29.65S
MINOT          MOSUNNY   79  33  19 W10G20    29.59S
DICKINSON      PTSUNNY   77  33  20 W16G26    29.65F
BEACH          FAIR      75  25  15 W21G29    29.70S
CROSBY         FAIR      68  32  26 NW14      29.67S
WATFORD CITY   FAIR      75  32  20 NW8G18    29.63F
BISMARCK       PTSUNNY   85  36  17 W26       29.60F
GRAND FORKS    PTSUNNY   86  33  15 S20G39    29.58F
FARGO          SUNNY     86  33  15 S21G28    29.65F
BUFFALO SD       N/A     78  25  14 NW23G29   29.67F
RAPID CITY     MOSUNNY   85  23  10 S10G18    29.70F
$$

REGIONAL REPORTS...WYOMING/IDAHO/WASHINGTON

CITY           SKY/WX    TMP DP  RH WIND       PRES   REMARKS
GILLETTE       MOSUNNY   74  24  15 NE7       29.82F
SHERIDAN       CLOUDY    70  28  21 VRB3      29.80F
BUFFALO WY     PTSUNNY   72  27  18 VRB6G17   29.85F
CODY           MOSUNNY   72  18  13 W17G25    29.82F
YELLOWSTONE LA   N/A     60  13  15 MISG      30.01F
IDAHO FALLS    MOSUNNY   78  25  14 SW20G29   29.85F
SALMON         PTSUNNY   66  30  26 N13       29.80F
BOISE          SUNNY     75  29  18 VRB6      29.86F
SPOKANE        MOSUNNY   60  22  23 W5        29.95S
$$

REGIONAL REPORTS...ALBERTA

CITY           SKY/WX    TMP DP  RH WIND       PRES   REMARKS
EDMONTON       MOSUNNY   45  37  76 W18       29.83S
CALGARY        PTSUNNY   50  19  29 NW15G23   29.89S
MEDICINE HAT   PTSUNNY   55  34  44 W15       29.83S
$$

REGIONAL REPORTS...SASKATCHEWAN

CITY           SKY/WX    TMP DP  RH WIND       PRES   REMARKS
SWIFT CURRENT  LGT RAIN  52  30  43 NW18G30   29.75R
REGINA         PTSUNNY   59  37  44 W12G21    29.71S
SASKATOON      PTSUNNY   59  28  31 SW15      29.70F
$$



USA.gov is the U.S. government's official web portal to all federal, state and local government web resources and services.